Vorticity
1 5 4 5 6 7 7 6 8 10 9 9 12 12 11 8 8 9 7 7 6 5 6 6 6 6 6 6 5 5 6 6 5 5 5 6 8 8 6 7 8 8 6
4 3 4 4 5 6 7 7 6 7 9 9 8 11 11 10 10 8 7 6 6 6 7 6 6 6 5 5 4 4 5 7 6 5 5 6 7 6 5 5 8 7 6
3 3 3 3 4 5 6 6 7 5 5 7 9 8 8 11 11 10 8 7 6 6 6 5 5 5 4 4 4 4 5 4 4 4 5 5 5 5 5 5 5 6 6
2 3 3 3 4 4 4 4 6 7 6 5 6 7 9 8 8 10 9 8 7 6 5 5 4 4 4 5 5 5 5 6 6 5 6 7 7 6 6 4 4 5 6
4 3 3 3 4 3 2 3 5 6 7 7 6 6 6 7 10 9 9 8 7 6 6 5 6 5 6 6 6 6 5 5 6 7 7 6 6 6 5 5 5 4 5
4 2 3 4 4 4 3 1 3 6 7 8 8 7 7 6 8 7 11 9 8 6 7 6 6 7 7 7 7 7 8 8 9 9 8 8 7 6 7 5 6 6 5
3 3 3 4 3 4 4 2 3 5 6 8 8 10 8 8 7 7 8 6 9 10 11 11 10 10 10 9 9 7 6 6 5 5 6 6 7 7 7 9 7 5 6
3 3 3 3 3 5 4 1 3 5 4 6 8 10 11 10 9 9 8 9 7 7 6 6 6 5 6 6 6 7 6 7 8 8 9 10 10 9 7 5 6 8 8
5 4 4 3 3 5 3 2 3 5 3 5 8 9 11 12 10 9 8 8 8 7 7 8 8 8 7 6 6 6 6 5 5 4 4 5 5 6 8 8 8 7 7
4 3 4 2 4 4 2 2 3 4 2 5 8 8 7 8 9 9 9 9 9 8 8 7 6 5 5 5 5 5 4 4 4 3 3 2 3 3 3 3 4 5 5
3 7 3 3 4 3 3 2 4 3 3 6 8 7 6 5 5 4 4 3 4 4 4 4 4 4 4 5 5 7 8 8 9 9 9 7 6 5 5 5 4 3 3
4 5 4 6 3 4 3 3 3 2 4 5 9 9 4 6 4 4 4 3 4 4 5 6 6 6 6 8 9 9 10 9 8 7 8 10 11 10 9 7 7 7 6
2 4 7 5 3 3 1 2 -1 3 4 6 8 7 7 5 4 3 4 4 4 4 6 3 7 7 5 6 5 4 4 5 6 6 7 7 6 6 6 7 6 6 6
9 7 5 3 2 1 3 -0 1 3 7 7 5 6 7 5 5 4 4 4 5 6 6 5 4 3 4 4 4 4 6 7 7 7 6 6 6 6 6 7 6 7 7
1 7 4 3 2 -0 1 1 7 2 7 5 5 7 7 6 5 4 5 5 6 5 4 4 4 4 4 5 6 6 5 5 6 6 7 8 8 8 8 8 8 8 8
3 7 3 1 -3 1 2 2 5 8 5 6 5 6 7 4 4 5 5 5 4 4 3 4 5 6 7 7 6 5 7 9 11 12 11 10 9 9 9 9 9 9 12
6 9 5 4 5 4 1 4 9 7 6 6 8 8 5 4 5 5 5 5 4 5 5 6 7 6 5 4 8 14 14 11 7 7 9 9 8 8 8 8 7 8 12
13 10 8 5 3 2 3 6 10 6 6 10 9 6 4 5 5 6 5 5 6 5 6 6 5 4 9 14 13 8 7 8 9 6 7 9 9 11 11 10 10 9 10
16 11 6 4 4 3 7 12 9 6 9 9 6 5 5 6 7 7 7 6 6 5 5 4 6 13 13 5 7 9 7 7 9 10 11 9 10 9 9 10 10 10 10
11 14 10 5 6 10 15 9 6 9 10 8 6 6 7 7 8 7 5 5 4 4 5 11 16 5 6 8 8 9 8 9 11 10 9 8 8 8 8 8 7 7 6
12 14 10 10 16 17 6 7 11 11 8 6 6 6 8 8 7 6 4 4 5 10 16 9 7 8 7 7 7 8 8 5 8 6 7 8 6 9 6 7 5 5 6
17 20 20 18 11 4 8 9 9 6 5 6 8 9 8 7 5 4 5 7 11 12 7 7 8 8 7 5 6 6 7 2 2 8 3 3 4 4 4 2 3 4 5
16 18 14 7 7 7 8 8 6 6 9 10 8 8 5 4 4 6 9 11 10 8 7 7 8 7 5 5 7 7 10 7 8 5 5 3 4 6 4 4 3 5 7
14 10 6 6 7 8 6 6 8 10 10 7 6 5 4 5 7 10 11 10 8 8 8 7 7 7 7 6 6 6 7 8 6 7 4 5 4 5 5 7 6 6 7
12 7 7 6 6 4 6 10 9 5 5 5 6 6 7 9 10 9 8 7 6 6 7 6 7 8 8 7 7 6 4 4 4 3 3 3 4 5 5 7 8 7 9
11 8 5 4 5 7 10 7 4 5 6 7 6 7 9 8 8 6 5 5 5 5 6 6 8 9 10 8 8 8 8 7 6 5 5 4 3 6 6 10 11 12 13
Height
3153 3153 3153 3151 3150 3148 3147 3145 3143 3142 3140 3138 3136 3135 3134 3133 3132 3133 3133 3135 3135 3136 3136 3136 3136 3136 3136 3136 3137 3137 3137 3137 3136 3136 3135 3134 3134 3133 3132 3131 3131 3130 3129
3153 3152 3152 3151 3149 3148 3147 3145 3144 3142 3140 3138 3137 3135 3134 3133 3133 3132 3133 3134 3135 3135 3136 3135 3136 3136 3136 3136 3136 3136 3135 3135 3134 3134 3133 3131 3131 3130 3130 3128 3128 3128 3128
3152 3152 3151 3150 3149 3148 3147 3145 3143 3142 3140 3139 3137 3135 3134 3133 3133 3133 3133 3134 3134 3135 3135 3135 3135 3135 3135 3134 3134 3133 3132 3132 3131 3130 3130 3129 3128 3127 3126 3125 3125 3126 3126
3151 3151 3150 3150 3149 3148 3146 3145 3144 3142 3141 3139 3137 3136 3134 3133 3133 3133 3133 3133 3133 3133 3133 3133 3133 3133 3132 3132 3131 3130 3129 3129 3128 3127 3127 3126 3125 3124 3124 3122 3121 3122 3122
3150 3151 3150 3150 3148 3147 3146 3145 3144 3142 3141 3138 3136 3135 3133 3133 3132 3132 3132 3132 3132 3131 3131 3131 3131 3130 3129 3128 3127 3127 3126 3125 3124 3124 3123 3122 3122 3121 3120 3119 3118 3118 3119
3149 3149 3150 3149 3148 3146 3146 3145 3144 3142 3140 3138 3136 3134 3133 3132 3131 3131 3130 3130 3130 3129 3129 3128 3127 3127 3126 3125 3125 3124 3122 3122 3120 3120 3119 3118 3117 3116 3116 3116 3114 3114 3115
3148 3149 3149 3148 3147 3146 3146 3144 3143 3142 3140 3137 3135 3134 3132 3131 3130 3129 3129 3128 3127 3127 3126 3125 3125 3124 3123 3122 3121 3120 3119 3118 3118 3116 3115 3114 3113 3112 3111 3110 3110 3110 3110
3147 3147 3147 3147 3146 3146 3145 3143 3143 3141 3139 3137 3134 3132 3131 3129 3128 3127 3127 3126 3125 3124 3124 3123 3122 3121 3120 3119 3119 3118 3117 3116 3114 3113 3112 3111 3109 3109 3107 3106 3105 3105 3105
3145 3145 3145 3145 3145 3145 3143 3143 3142 3140 3138 3136 3134 3132 3130 3128 3127 3126 3125 3125 3123 3123 3121 3120 3120 3119 3118 3117 3116 3115 3114 3113 3112 3110 3109 3107 3106 3104 3104 3103 3102 3102 3101
3142 3143 3143 3143 3143 3143 3142 3141 3141 3139 3138 3136 3134 3132 3130 3128 3126 3125 3124 3123 3122 3121 3120 3119 3118 3117 3116 3115 3114 3113 3111 3110 3109 3107 3106 3104 3102 3101 3100 3099 3098 3097 3096
3140 3141 3141 3141 3141 3141 3141 3140 3139 3138 3137 3136 3134 3132 3130 3128 3126 3125 3124 3123 3122 3121 3120 3118 3117 3116 3114 3113 3111 3110 3108 3107 3105 3103 3102 3100 3098 3097 3096 3095 3093 3092 3092
3137 3138 3139 3139 3139 3139 3139 3138 3137 3136 3135 3134 3133 3131 3129 3127 3125 3124 3123 3122 3121 3119 3118 3116 3115 3113 3112 3111 3109 3107 3106 3104 3102 3100 3098 3095 3094 3092 3090 3089 3088 3087 3085
3134 3135 3136 3136 3136 3137 3136 3135 3134 3133 3133 3131 3131 3129 3127 3125 3124 3122 3121 3119 3117 3116 3115 3113 3112 3111 3110 3108 3106 3105 3103 3101 3098 3096 3093 3091 3089 3087 3085 3083 3083 3081 3080
3131 3131 3133 3133 3134 3134 3133 3133 3132 3130 3129 3128 3128 3126 3125 3123 3122 3120 3118 3117 3116 3114 3112 3111 3109 3107 3104 3102 3100 3098 3096 3093 3091 3089 3087 3085 3083 3080 3079 3078 3076 3074 3073
3126 3127 3128 3129 3129 3130 3130 3130 3129 3127 3126 3125 3125 3124 3123 3121 3119 3117 3116 3114 3113 3110 3108 3106 3104 3101 3099 3098 3095 3093 3090 3087 3085 3082 3080 3078 3075 3073 3071 3069 3067 3066 3065
3121 3123 3123 3124 3124 3125 3125 3124 3124 3123 3123 3122 3121 3120 3118 3117 3115 3114 3112 3110 3108 3106 3103 3101 3099 3097 3094 3092 3090 3087 3084 3081 3077 3076 3074 3071 3068 3066 3063 3060 3059 3057 3057
3115 3117 3119 3119 3119 3119 3120 3120 3120 3119 3119 3118 3117 3116 3115 3113 3112 3110 3108 3106 3104 3101 3099 3097 3094 3090 3088 3086 3083 3080 3077 3074 3071 3069 3066 3063 3060 3058 3055 3053 3051 3049 3048
3107 3111 3112 3113 3113 3115 3115 3115 3116 3115 3115 3115 3113 3112 3112 3110 3109 3106 3104 3102 3100 3096 3094 3091 3088 3085 3082 3079 3077 3074 3071 3067 3065 3062 3059 3055 3052 3050 3048 3045 3043 3041 3039
3101 3103 3105 3107 3108 3109 3111 3111 3111 3111 3110 3110 3109 3108 3107 3106 3105 3103 3100 3098 3095 3092 3089 3085 3081 3078 3075 3073 3071 3068 3065 3061 3059 3055 3052 3048 3045 3042 3040 3038 3036 3033 3029
3095 3096 3098 3101 3103 3104 3106 3107 3107 3107 3107 3106 3105 3104 3104 3102 3101 3098 3096 3094 3090 3087 3084 3080 3076 3072 3070 3068 3066 3063 3059 3055 3052 3049 3046 3042 3039 3036 3032 3029 3027 3024 3021
3090 3090 3092 3095 3098 3100 3102 3103 3103 3103 3103 3103 3102 3101 3100 3099 3097 3095 3092 3089 3085 3082 3078 3075 3072 3068 3063 3061 3059 3058 3054 3049 3047 3043 3040 3037 3032 3029 3026 3022 3019 3015 3013
3084 3085 3088 3091 3094 3096 3097 3098 3099 3099 3099 3099 3098 3097 3096 3095 3093 3090 3087 3083 3080 3076 3073 3070 3067 3063 3058 3053 3050 3048 3046 3046 3041 3037 3034 3030 3025 3022 3018 3014 3009 3005 3001
3081 3082 3085 3088 3091 3092 3093 3095 3095 3095 3095 3096 3095 3094 3092 3090 3088 3085 3082 3079 3075 3071 3068 3064 3061 3057 3054 3047 3041 3037 3031 3029 3026 3028 3025 3020 3014 3011 3007 3002 2997 2993 2988
3078 3080 3083 3085 3087 3088 3090 3091 3092 3092 3092 3092 3092 3090 3088 3086 3083 3080 3077 3074 3070 3066 3062 3058 3054 3050 3047 3043 3038 3032 3024 3017 3010 3002 3012 3010 3004 2999 2995 2990 2985 2980 2974
3075 3078 3080 3082 3084 3085 3086 3087 3089 3090 3090 3089 3088 3086 3084 3082 3079 3076 3072 3069 3064 3060 3056 3052 3047 3042 3038 3034 3029 3025 3020 3013 3006 2995 2983 2987 2990 2987 2982 2976 2972 2966 2960
3072 3075 3077 3079 3080 3082 3083 3085 3086 3087 3087 3086 3085 3082 3080 3077 3074 3070 3066 3062 3058 3054 3050 3046 3041 3036 3031 3026 3020 3014 3008 3003 2998 2990 2981 2973 2964 2962 2959 2958 2957 2951 2945